[[{"header":{"parameterUnit":"m.s-1","parameterCategory":1,"la1":30.2991,"la2":30.254,"lo1":-89.0895,"lo2":-89.0444,"dy":0.0017,"dx":0.0017,"nx":28,"ny":28,"refTime":"2024-07-19T09:00:00:Z","depth":0,"parameterNumber":2,"parameterNumberName":"U-component_of_WINDS"},"data":[0,0,0,0,0,0,0,0,0,0,0,0,0,0,0,0,0,0,0,0,0,0,0,0,0,0,0,0,0,0,0,0,0,0,0,0,0,0,0,0,0,0,0,0,0,0,0,0,0,0,0,0,0,0,0,0,0,0,0.3658,0.3659,0,0.3766,0.3767,0.3769,0.3776,0.3775,0.3774,0.3773,0.3879,0.3882,0.3886,0,0,0,0,0,0,0,0,0,0,0,0,0,0.3454,0.3458,0.3657,0.3659,0.366,0.3766,0.3767,0.3769,0.3777,0.3775,0.3774,0.3772,0.3877,0.3882,0.3887,0,0,0,0,0,0,0,0,0,0,0,0,0,0.355,0.3459,0.3657,0.3677,0.368,0.3766,0.3768,0.3769,0.3777,0.3775,0.3773,0.3772,0.3876,0.3882,0.3887,0.3959,0,0,0.3905,0.3908,0,0,0,0,0,0,0,0,0.3545,0.3558,0.3673,0.3676,0.3679,0.3756,0.3735,0.3833,0.3777,0.374,0.3773,0.3771,0.3839,0.3848,0.3872,0.3964,0.3969,0.3906,0.3909,0.3912,0.3914,0,0,0,0,0,0,0,0.3538,0.3553,0.37,0.3674,0.3678,0.3679,0.3691,0.3753,0.3798,0.3743,0.3744,0.3757,0.384,0.3866,0.3874,0.397,0.3906,0.3911,0.3915,0.3917,0.4131,0.4134,0,0,0,0,0,0,0.3528,0.3547,0.3697,0.3704,0.3606,0.3685,0.3698,0.3733,0.3797,0.3805,0.3758,0.3757,0.3857,0.3867,0.3878,0.397,0.3912,0.3917,0.3921,0.4129,0.4132,0.4134,0,0,0,0,0,0,0.3524,0.3541,0.3692,0.3626,0.3645,0.369,0.373,0.3736,0.3762,0.3809,0.3816,0.3777,0.3856,0.387,0.3941,0.3974,0.392,0.3925,0.4127,0.413,0.4133,0.4152,0,0,0,0,0,0,0.3518,0.354,0.3568,0.3627,0.3649,0.3754,0.3732,0.374,0.3773,0.3772,0.3828,0.3836,0.3856,0.3932,0.3946,0.3981,0.393,0.4124,0.4128,0.4132,0.4149,0.4155,0.4161,0,0,0,0,0,0.3511,0.3567,0.3569,0.3587,0.3685,0.3756,0.3768,0.3792,0.3775,0.3804,0.3835,0.3834,0.3967,0.3939,0.3955,0.3992,0.4122,0.4127,0.4132,0.4146,0.4154,0.4161,0,0,0,0,0,0,0.3508,0.3575,0.3578,0.3655,0.37,0.3757,0.3794,0.3799,0.3848,0.3845,0.387,0.3882,0.3953,0.3979,0.3946,0.4067,0.4043,0.4051,0.4048,0.4056,0.4062,0.4055,0.3935,0,0,0,0,0,0.3517,0.357,0.3624,0.3687,0.371,0.3748,0.3779,0.3794,0.3841,0.3859,0.3895,0.3939,0.3991,0.4025,0.4075,0.4152,0.4166,0.4186,0.4192,0.4197,0.4204,0.4251,0.4261,0.415,0.415,0.415,0,0,0.3534,0.3577,0.3609,0.3688,0.3724,0.3779,0.3764,0.382,0.3861,0.3867,0.3938,0.3965,0.4016,0.4092,0.4126,0.4115,0.4238,0.4203,0.4207,0.4212,0.4257,0.4267,0.4276,0.4154,0.4153,0.4153,0,0,0.3595,0.3632,0.369,0.3729,0.3786,0.3811,0.3825,0.3883,0.3902,0.3974,0.3981,0.4028,0.4117,0.4154,0.4185,0.4264,0.4266,0.428,0.4313,0.4358,0.4367,0.4375,0.4406,0.4416,0.4286,0.4286,0.4287,0,0.3609,0.3693,0.3719,0.3778,0.3813,0.3824,0.3884,0.3919,0.3988,0.4012,0.4,0.4114,0.4149,0.4235,0.4255,0.4278,0.4296,0.4274,0.4364,0.4372,0.438,0.4409,0.4421,0.4288,0.4288,0.4288,0.4287,0,0.3709,0.3767,0.3807,0.3878,0.3918,0.3976,0.4012,0.4049,0.4061,0.4088,0.4162,0.4204,0.4266,0.4287,0.4297,0.4375,0.4367,0.4359,0.4335,0.4391,0.442,0.4431,0.429,0.429,0.4289,0.4289,0,0,0.3769,0.3858,0.3872,0.3906,0.3972,0.4016,0.4076,0.4139,0.4172,0.4219,0.4271,0.4348,0.4342,0.4376,0.4391,0.443,0.4495,0.4418,0.4419,0.4433,0.4587,0.4595,0.4607,0.4496,0.4498,0.45,0.4584,0,0.3839,0.3949,0.3976,0.4069,0.4125,0.4138,0.4191,0.4236,0.4264,0.4314,0.4343,0.4399,0.4385,0.4407,0.4446,0.4479,0.4526,0.4472,0.4545,0.4547,0.4534,0.4622,0.4629,0.4706,0.4595,0.4597,0.4598,0,0.3935,0.399,0.409,0.4153,0.4177,0.4224,0.4286,0.4333,0.4386,0.4403,0.4445,0.4457,0.452,0.4493,0.4581,0.4544,0.4575,0.4596,0.4599,0.4608,0.4577,0.4635,0.4731,0.4743,0.4615,0.4614,0.4613,0,0.3972,0.407,0.4145,0.4173,0.4247,0.428,0.4312,0.4363,0.4401,0.4454,0.4479,0.4537,0.457,0.4614,0.4642,0.4619,0.4729,0.4703,0.4746,0.4746,0.477,0.4768,0.4874,0.4786,0.4786,0.4786,0.4785,0,0.4049,0.411,0.4163,0.4209,0.4279,0.4309,0.4377,0.4409,0.4455,0.4507,0.452,0.4568,0.4601,0.4654,0.4676,0.4747,0.4761,0.4777,0.4782,0.4777,0.4776,0.4799,0.4795,0.4789,0.4788,0.4787,0.4787,0,0.4102,0.414,0.4222,0.4287,0.4305,0.4354,0.4409,0.4454,0.4484,0.4549,0.4566,0.4612,0.4675,0.4707,0.4784,0.4799,0.488,0.4881,0.4864,0.4866,0.4909,0.4905,0.5035,0.5054,0.4951,0.4952,0.4953,0,0.4149,0.4197,0.427,0.4307,0.4341,0.44,0.444,0.4473,0.4513,0.458,0.4617,0.4682,0.4735,0.4835,0.4874,0.4934,0.4938,0.4979,0.4947,0.4941,0.4942,0.494,0.4946,0.4985,0.4986,0.4987,0.4988,0,0.4229,0.4247,0.4305,0.4372,0.442,0.4472,0.4524,0.4553,0.4594,0.4639,0.4706,0.4748,0.483,0.4894,0.4958,0.499,0.4996,0.4998,0.5011,0.5008,0.4997,0.5006,0.4882,0.4995,0.4994,0.4993,0.4993,0.4993,0.4283,0.4328,0.4388,0.4453,0.4497,0.4546,0.4593,0.4631,0.4688,0.476,0.4774,0.4846,0.49,0.4987,0.5021,0.5077,0.5068,0.5087,0.5092,0.5097,0.51,0.4987,0.5088,0.5088,0.5088,0.5087,0.5087,0,0.4367,0.4407,0.4467,0.4542,0.4594,0.4599,0.4657,0.47,0.4764,0.4815,0.4869,0.4948,0.5011,0.5057,0.5121,0.5158,0.5162,0.5174,0.5172,0.518,0.5103,0.5086,0.5169,0.5169,0.5169,0.5169,0.5169,0.5169,0.4416,0.4495,0.4521,0.4622,0.4661,0.4734,0.4768,0.4814,0.4855,0.4944,0.4998,0.5029,0.5078,0.5148,0.5207,0.5218,0.5242,0.5254,0.5266,0.5193,0.5185,0.5177,0.5161,0.5258,0.5259,0.5339,0.534,0.534]},{"header":{"parameterUnit":"m.s-1","parameterCategory":1,"la1":30.2991,"la2":30.254,"lo1":-89.0895,"lo2":-89.0444,"dy":0.0017,"dx":0.0017,"nx":28,"ny":28,"refTime":"2024-07-19T09:00:00:Z","depth":0,"parameterNumber":3,"parameterNumberName":"V-component_of_WINDS"},"data":[0,0,0,0,0,0,0,0,0,0,0,0,0,0,0,0,0,0,0,0,0,0,0,0,0,0,0,0,0,0,0,0,0,0,0,0,0,0,0,0,0,0,0,0,0,0,0,0,0,0,0,0,0,0,0,0,0,0,5.0098,5.0098,0,5.0028,5.0027,5.0026,4.9943,4.9942,4.994,4.9939,4.9864,4.9863,4.9862,0,0,0,0,0,0,0,0,0,0,0,0,0,5.0159,5.0158,5.0099,5.0098,5.0097,5.0028,5.0027,5.0026,4.9943,4.9941,4.994,4.9938,4.9864,4.9863,4.9862,0,0,0,0,0,0,0,0,0,0,0,0,0,5.0115,5.0158,5.0099,5.0047,5.0042,5.0028,5.0027,5.0026,4.9943,4.9941,4.994,4.9938,4.9864,4.9863,4.9862,4.9892,0,0,4.9858,4.9857,0,0,0,0,0,0,0,0,5.0117,5.0113,5.0056,5.0051,5.0045,4.9992,5.0021,4.9981,4.9944,4.9981,4.9939,4.9937,4.9908,4.9903,4.9894,4.9889,4.9886,4.9858,4.9857,4.9857,4.9856,0,0,0,0,0,0,0,5.0121,5.0115,5.007,5.0055,5.0048,5.0027,5.0018,5.0013,4.9956,4.9977,4.9971,4.9964,4.9904,4.9895,4.9891,4.9885,4.9858,4.9857,4.9856,4.9856,4.99,4.9902,0,0,0,0,0,0,5.0132,5.0118,5.0073,5.0068,5.0077,5.0027,5.0018,5.0011,4.9956,4.9945,4.9966,4.996,4.9898,4.9893,4.9888,4.9919,4.9857,4.9855,4.9855,4.9898,4.9901,4.9903,0,0,0,0,0,0,5.0133,5.0128,5.0076,5.0092,5.0083,5.0028,5.0021,5.0011,5.0001,4.9947,4.9936,4.9967,4.9896,4.989,4.9892,4.9915,4.9855,4.9854,4.9896,4.9899,4.9902,4.9982,0,0,0,0,0,0,5.0135,5.013,5.0141,5.0093,5.0083,5.0081,5.0023,5.0011,5.0,4.9992,4.9945,4.9935,4.9894,4.9894,4.9891,4.9912,4.9853,4.9894,4.9897,4.9901,4.9977,4.9987,4.9996,0,0,0,0,0,5.0138,5.0166,5.0142,5.0137,5.0096,5.0083,5.0077,5.003,5.0002,5.0012,4.9978,4.9937,4.9914,4.9895,4.9891,4.9912,4.9892,4.9896,4.9901,4.9972,4.9985,4.9996,0,0,0,0,0,0,5.0217,5.0158,5.0131,5.0145,5.012,5.0069,5.008,5.0046,5.0027,5.002,4.9962,4.9953,4.9961,4.9937,4.9917,4.9939,4.9897,4.9901,4.9953,4.9965,4.9974,4.9978,4.9852,0,0,0,0,0,5.0236,5.0231,5.018,5.0197,5.0186,5.0136,5.0128,5.0095,5.0066,5.0054,5.002,4.9992,4.9979,4.9971,4.9956,4.9974,4.9962,4.9987,4.9996,5.0005,5.0007,5.0014,5.0024,4.9917,4.9917,4.9917,0,0,5.0275,5.0243,5.0243,5.0212,5.0188,5.0183,5.0127,5.0124,5.012,5.0054,5.0053,5.0027,4.9993,5.0003,5.0005,4.9983,5.0035,5.001,5.0017,5.0015,5.0019,5.0029,5.0038,4.992,4.9919,4.9919,0,0,5.0343,5.0319,5.033,5.0308,5.0274,5.0241,5.0244,5.0199,5.0179,5.0178,5.0128,5.0122,5.01,5.0077,5.0063,5.0125,5.0086,5.0122,5.017,5.0177,5.0186,5.0193,5.0213,5.0221,5.0125,5.0126,5.0126,0,5.0395,5.0386,5.0339,5.034,5.0327,5.0269,5.0279,5.026,5.0222,5.0214,5.0191,5.0162,5.0135,5.0138,5.0154,5.0145,5.0145,5.0125,5.0189,5.0195,5.0201,5.0219,5.0227,5.013,5.013,5.0129,5.0129,0,5.0451,5.0447,5.0459,5.0425,5.0414,5.042,5.0372,5.0367,5.0336,5.0305,5.0304,5.0271,5.0247,5.0246,5.0215,5.0245,5.0232,5.02,5.0156,5.0216,5.0232,5.0239,5.0136,5.0135,5.0133,5.0132,0,0,5.0563,5.0505,5.051,5.0494,5.0453,5.0448,5.0451,5.0429,5.0425,5.0402,5.0401,5.0385,5.0355,5.0339,5.0305,5.0312,5.0361,5.0278,5.0277,5.0293,5.039,5.0412,5.0421,5.0336,5.0337,5.0338,5.0392,0,5.0621,5.0623,5.0581,5.0594,5.0588,5.0534,5.0536,5.0511,5.0483,5.0474,5.0442,5.0431,5.0394,5.0383,5.0388,5.0354,5.0379,5.035,5.0333,5.0333,5.034,5.043,5.0453,5.0505,5.0398,5.0399,5.04,0,5.0688,5.067,5.0682,5.0641,5.0637,5.064,5.0617,5.0609,5.0579,5.0559,5.0542,5.0504,5.0502,5.0464,5.0461,5.0442,5.0433,5.0415,5.0416,5.041,5.0368,5.0423,5.052,5.0527,5.0409,5.0409,5.0408,0,5.0765,5.0744,5.0749,5.0737,5.069,5.0693,5.0673,5.0642,5.0632,5.0612,5.0604,5.0585,5.0573,5.0558,5.0515,5.0491,5.0515,5.0474,5.0496,5.0497,5.05,5.05,5.0595,5.05,5.05,5.05,5.05,0,5.0832,5.0841,5.0783,5.0785,5.0793,5.0746,5.0756,5.0731,5.0704,5.0699,5.0653,5.065,5.0595,5.0585,5.0552,5.0553,5.0549,5.053,5.0521,5.0533,5.0535,5.0523,5.0518,5.0502,5.0502,5.0501,5.0501,0,5.0918,5.088,5.088,5.0837,5.0826,5.0834,5.0796,5.0796,5.0767,5.0762,5.0758,5.0711,5.0698,5.0655,5.063,5.0608,5.0618,5.0602,5.0628,5.0621,5.0645,5.0642,5.0733,5.0741,5.0645,5.0646,5.0647,0,5.0961,5.0967,5.0925,5.092,5.0903,5.0894,5.0884,5.0839,5.083,5.0798,5.0801,5.0785,5.0768,5.0749,5.0712,5.0693,5.0674,5.0707,5.067,5.0682,5.0671,5.067,5.0669,5.0714,5.0715,5.0716,5.0717,0,5.1042,5.1023,5.1011,5.0992,5.0982,5.0965,5.0945,5.0943,5.0892,5.0885,5.0871,5.0859,5.0835,5.0818,5.0793,5.0772,5.0735,5.073,5.0733,5.0744,5.0758,5.0748,5.0646,5.0727,5.0726,5.0725,5.0725,5.0724,5.1105,5.1108,5.1079,5.1067,5.1048,5.1031,5.1028,5.1,5.0988,5.0966,5.094,5.0929,5.09,5.0863,5.0845,5.0835,5.0815,5.0821,5.0822,5.0823,5.0828,5.0763,5.0831,5.083,5.083,5.083,5.0829,0,5.1181,5.116,5.115,5.1125,5.1115,5.1086,5.1062,5.1056,5.1047,5.1024,5.101,5.0994,5.0978,5.0941,5.0921,5.0921,5.0903,5.0917,5.0914,5.091,5.0848,5.0846,5.0931,5.0931,5.0931,5.0931,5.0931,5.0931,5.1219,5.1221,5.1199,5.1192,5.1171,5.1161,5.115,5.1134,5.1115,5.11,5.1087,5.1064,5.1035,5.1013,5.0997,5.0986,5.098,5.0998,5.0982,5.0924,5.0914,5.0905,5.0902,5.0998,5.0998,5.1044,5.1044,5.1045]}]]